[[{"header":{"parameterUnit":"m.s-1","parameterCategory":1,"la1":30.2991,"la2":30.254,"lo1":-89.0895,"lo2":-89.0444,"dy":0.0017,"dx":0.0017,"nx":28,"ny":28,"refTime":"2023-10-08T09:00:00:Z","depth":0,"parameterNumber":2,"parameterNumberName":"U-component_of_WINDS"},"data":[0,0,0,0,0,0,0,0,0,0,0,0,0,0,0,0,0,0,0,0,0,0,0,0,0,0,0,0,0,0,0,0,0,0,0,0,0,0,0,0,0,0,0,0,0,0,0,0,0,0,0,0,0,0,0,0,0,0,-3.2802,-3.2802,0,-3.2839,-3.284,-3.284,-3.2759,-3.2756,-3.2754,-3.2751,-3.279,-3.2794,-3.2797,0,0,0,0,0,0,0,0,0,0,0,0,0,-3.266,-3.2663,-3.2802,-3.2802,-3.2802,-3.2839,-3.284,-3.284,-3.276,-3.2756,-3.2753,-3.275,-3.2789,-3.2793,-3.2798,0,0,0,0,0,0,0,0,0,0,0,0,0,-3.2712,-3.2664,-3.2801,-3.2767,-3.2764,-3.2839,-3.284,-3.284,-3.276,-3.2756,-3.2752,-3.2749,-3.2788,-3.2793,-3.2798,-3.2909,0,0,-3.2814,-3.2816,0,0,0,0,0,0,0,0,-3.2709,-3.2717,-3.2771,-3.2769,-3.2766,-3.279,-3.2804,-3.2863,-3.2761,-3.2762,-3.2751,-3.2747,-3.2794,-3.2798,-3.2814,-3.2911,-3.2913,-3.2815,-3.2818,-3.282,-3.2821,0,0,0,0,0,0,0,-3.2706,-3.2715,-3.2816,-3.2772,-3.2769,-3.2749,-3.2752,-3.2815,-3.2799,-3.2761,-3.2755,-3.2761,-3.2791,-3.2809,-3.2814,-3.2913,-3.2814,-3.2819,-3.2822,-3.2824,-3.3105,-3.3109,0,0,0,0,0,0,-3.2707,-3.2713,-3.2815,-3.2818,-3.2728,-3.2755,-3.2758,-3.2787,-3.2798,-3.2796,-3.2764,-3.2757,-3.2802,-3.2808,-3.2815,-3.2948,-3.282,-3.2825,-3.2828,-3.3101,-3.3106,-3.3111,0,0,0,0,0,0,-3.2704,-3.2717,-3.2814,-3.2764,-3.2775,-3.2762,-3.2794,-3.2789,-3.2807,-3.2801,-3.2797,-3.2785,-3.2799,-3.2808,-3.2887,-3.2948,-3.2827,-3.2832,-3.3096,-3.3103,-3.3109,-3.3214,0,0,0,0,0,0,-3.27,-3.2716,-3.2758,-3.2765,-3.2778,-3.2885,-3.2798,-3.2793,-3.2816,-3.2807,-3.2819,-3.2818,-3.2797,-3.2879,-3.2892,-3.2953,-3.2836,-3.309,-3.3099,-3.3107,-3.3205,-3.3223,-3.3239,0,0,0,0,0,-3.2695,-3.2785,-3.276,-3.2773,-3.283,-3.2889,-3.2896,-3.287,-3.2821,-3.2864,-3.286,-3.2817,-3.2939,-3.2888,-3.2902,-3.2965,-3.3086,-3.3096,-3.3106,-3.3197,-3.3219,-3.3238,0,0,0,0,0,0,-3.2785,-3.2786,-3.2758,-3.2853,-3.2872,-3.2875,-3.2927,-3.2894,-3.2926,-3.2916,-3.2882,-3.2886,-3.2972,-3.2976,-3.292,-3.3074,-3.3005,-3.3017,-3.3069,-3.309,-3.3107,-3.3106,-3.284,0,0,0,0,0,-3.2816,-3.2864,-3.2861,-3.2946,-3.2956,-3.2941,-3.2965,-3.2944,-3.2961,-3.2969,-3.297,-3.2989,-3.3032,-3.3061,-3.3099,-3.3204,-3.3207,-3.3254,-3.3271,-3.3285,-3.3298,-3.3356,-3.3378,-3.3143,-3.3143,-3.3143,0,0,-3.2881,-3.2887,-3.2919,-3.2964,-3.2976,-3.3027,-3.2948,-3.3004,-3.3042,-3.2977,-3.3053,-3.3055,-3.3073,-3.3167,-3.3207,-3.3173,-3.3363,-3.3298,-3.3309,-3.3314,-3.3368,-3.339,-3.341,-3.315,-3.3148,-3.3147,0,0,-3.3025,-3.3033,-3.3106,-3.3119,-3.3138,-3.3127,-3.3144,-3.3153,-3.3152,-3.3227,-3.318,-3.3224,-3.3298,-3.3314,-3.3332,-3.3483,-3.3446,-3.3496,-3.3586,-3.3643,-3.3661,-3.3678,-3.3734,-3.3755,-3.3508,-3.3508,-3.3508,0,-3.3103,-3.3178,-3.3147,-3.3208,-3.323,-3.3173,-3.3247,-3.3261,-3.3292,-3.3309,-3.3269,-3.3361,-3.3369,-3.3467,-3.3504,-3.3519,-3.3539,-3.3496,-3.3661,-3.3677,-3.3692,-3.3745,-3.3767,-3.3514,-3.3514,-3.3513,-3.3513,0,-3.3274,-3.3327,-3.3383,-3.3415,-3.3443,-3.351,-3.349,-3.3521,-3.3497,-3.3491,-3.3569,-3.3577,-3.3617,-3.3638,-3.3615,-3.3733,-3.3711,-3.3666,-3.3596,-3.3721,-3.3771,-3.3791,-3.3523,-3.3521,-3.3519,-3.3518,0,0,-3.3478,-3.3492,-3.3514,-3.3528,-3.3545,-3.3585,-3.365,-3.3689,-3.3719,-3.3741,-3.3796,-3.386,-3.3819,-3.384,-3.3817,-3.3867,-3.399,-3.3816,-3.3816,-3.3851,-3.4123,-3.4159,-3.4183,-3.3964,-3.3967,-3.397,-3.4123,0,-3.3623,-3.3735,-3.3709,-3.382,-3.3869,-3.3816,-3.3873,-3.3889,-3.3885,-3.3926,-3.3921,-3.3968,-3.3909,-3.3922,-3.3968,-3.3965,-3.4044,-3.3953,-3.4016,-3.4019,-3.4017,-3.4209,-3.4246,-3.4389,-3.4141,-3.4145,-3.4147,0,-3.3808,-3.3839,-3.3955,-3.3965,-3.3985,-3.4036,-3.4072,-3.4111,-3.4129,-3.4122,-3.4146,-3.4114,-3.4179,-3.4106,-3.4196,-3.4135,-3.4159,-3.4161,-3.4166,-3.4173,-3.4093,-3.4224,-3.4434,-3.4457,-3.4177,-3.4175,-3.4172,0,-3.3949,-3.4019,-3.4098,-3.4111,-3.4125,-3.4163,-3.417,-3.4184,-3.421,-3.424,-3.4257,-3.4295,-3.4316,-3.4346,-3.4326,-3.4274,-3.442,-3.4345,-3.4418,-3.4419,-3.4454,-3.4453,-3.4674,-3.4464,-3.4464,-3.4464,-3.4463,0,-3.4115,-3.4189,-3.4162,-3.4211,-3.4292,-3.4262,-3.4343,-3.4344,-3.4357,-3.4406,-3.4361,-3.4408,-3.4377,-3.4421,-3.4405,-3.4484,-3.4493,-3.449,-3.4486,-3.4496,-3.4497,-3.4514,-3.4505,-3.4469,-3.4468,-3.4467,-3.4466,0,-3.4288,-3.4272,-3.4355,-3.4361,-3.4364,-3.4424,-3.4429,-3.4475,-3.4467,-3.453,-3.4542,-3.453,-3.458,-3.4562,-3.4615,-3.4604,-3.4706,-3.4686,-3.47,-3.4697,-3.4772,-3.4767,-3.5014,-3.5047,-3.4813,-3.4816,-3.4818,0,-3.4397,-3.4452,-3.4465,-3.4494,-3.4505,-3.4553,-3.458,-3.4552,-3.4581,-3.4607,-3.465,-3.4696,-3.4732,-3.4815,-3.4811,-3.4852,-3.4835,-3.4919,-3.4841,-3.4851,-3.484,-3.4839,-3.4845,-3.4936,-3.4938,-3.4941,-3.4942,0,-3.4593,-3.4583,-3.4623,-3.4661,-3.4695,-3.4723,-3.4747,-3.4774,-3.4748,-3.4783,-3.4834,-3.4862,-3.4917,-3.4964,-3.5001,-3.5008,-3.4973,-3.4967,-3.4986,-3.4999,-3.5006,-3.5007,-3.4746,-3.4962,-3.496,-3.4958,-3.4957,-3.4957,-3.4739,-3.4787,-3.4804,-3.4851,-3.4866,-3.489,-3.4935,-3.4932,-3.4974,-3.5017,-3.4997,-3.5057,-3.5075,-3.512,-3.5133,-3.518,-3.5148,-3.5175,-3.5183,-3.5191,-3.5203,-3.4996,-3.5186,-3.5185,-3.5185,-3.5184,-3.5184,0,-3.4936,-3.4944,-3.4987,-3.5024,-3.5061,-3.5022,-3.5047,-3.5082,-3.5135,-3.5154,-3.519,-3.525,-3.5296,-3.5295,-3.5338,-3.5375,-3.536,-3.5388,-3.5386,-3.5389,-3.5227,-3.5208,-3.54,-3.54,-3.54,-3.54,-3.54,-3.54,-3.5043,-3.5123,-3.5115,-3.5203,-3.521,-3.5268,-3.5287,-3.5309,-3.5325,-3.5394,-3.5431,-3.543,-3.5443,-3.5486,-3.5526,-3.5525,-3.5544,-3.5579,-3.5572,-3.5422,-3.54,-3.538,-3.5362,-3.5583,-3.5583,-3.573,-3.5732,-3.5733]},{"header":{"parameterUnit":"m.s-1","parameterCategory":1,"la1":30.2991,"la2":30.254,"lo1":-89.0895,"lo2":-89.0444,"dy":0.0017,"dx":0.0017,"nx":28,"ny":28,"refTime":"2023-10-08T09:00:00:Z","depth":0,"parameterNumber":3,"parameterNumberName":"V-component_of_WINDS"},"data":[0,0,0,0,0,0,0,0,0,0,0,0,0,0,0,0,0,0,0,0,0,0,0,0,0,0,0,0,0,0,0,0,0,0,0,0,0,0,0,0,0,0,0,0,0,0,0,0,0,0,0,0,0,0,0,0,0,0,-4.5308,-4.5309,0,-4.5373,-4.5373,-4.5374,-4.5321,-4.5319,-4.5317,-4.5315,-4.5378,-4.5382,-4.5386,0,0,0,0,0,0,0,0,0,0,0,0,0,-4.5137,-4.5141,-4.5308,-4.5309,-4.531,-4.5372,-4.5373,-4.5374,-4.5322,-4.5319,-4.5316,-4.5314,-4.5377,-4.5382,-4.5386,0,0,0,0,0,0,0,0,0,0,0,0,0,-4.5208,-4.5142,-4.5308,-4.5291,-4.529,-4.5372,-4.5373,-4.5374,-4.5322,-4.5319,-4.5315,-4.5312,-4.5376,-4.5381,-4.5387,-4.5488,0,0,-4.5404,-4.5407,0,0,0,0,0,0,0,0,-4.5204,-4.5214,-4.5293,-4.5292,-4.5292,-4.5335,-4.5336,-4.5413,-4.5323,-4.531,-4.5315,-4.5311,-4.5367,-4.5373,-4.5392,-4.5491,-4.5494,-4.5405,-4.5408,-4.541,-4.5412,0,0,0,0,0,0,0,-4.5199,-4.5211,-4.5333,-4.5294,-4.5293,-4.528,-4.5286,-4.5351,-4.5356,-4.5311,-4.5307,-4.5316,-4.5366,-4.5387,-4.5393,-4.5495,-4.5404,-4.5409,-4.5413,-4.5415,-4.5681,-4.5684,0,0,0,0,0,0,-4.5196,-4.5207,-4.5331,-4.5335,-4.5239,-4.5285,-4.5292,-4.5325,-4.5355,-4.5357,-4.5318,-4.5313,-4.5379,-4.5387,-4.5395,-4.5517,-4.541,-4.5416,-4.5419,-4.5677,-4.5682,-4.5686,0,0,0,0,0,0,-4.5193,-4.5208,-4.5329,-4.527,-4.5285,-4.5292,-4.5329,-4.5328,-4.5349,-4.5361,-4.5361,-4.5339,-4.5377,-4.5387,-4.5466,-4.5518,-4.5418,-4.5423,-4.5673,-4.5679,-4.5684,-4.576,0,0,0,0,0,0,-4.5188,-4.5207,-4.5246,-4.5272,-4.5288,-4.5399,-4.5332,-4.5331,-4.5359,-4.5352,-4.5381,-4.5382,-4.5375,-4.5458,-4.5471,-4.5524,-4.5428,-4.5668,-4.5675,-4.5682,-4.5753,-4.5768,-4.578,0,0,0,0,0,-4.5182,-4.5264,-4.5248,-4.5263,-4.5337,-4.5402,-4.5412,-4.5402,-4.5363,-4.5403,-4.541,-4.5381,-4.551,-4.5466,-4.5481,-4.5536,-4.5665,-4.5673,-4.5681,-4.5747,-4.5765,-4.578,0,0,0,0,0,0,-4.5244,-4.5267,-4.525,-4.5343,-4.5371,-4.5393,-4.5442,-4.5421,-4.546,-4.5453,-4.5438,-4.5445,-4.5528,-4.554,-4.549,-4.5636,-4.5581,-4.5593,-4.5626,-4.5643,-4.5656,-4.5652,-4.5432,0,0,0,0,0,-4.5268,-4.532,-4.5337,-4.5418,-4.5433,-4.5436,-4.5463,-4.5454,-4.5482,-4.5493,-4.5507,-4.5535,-4.5582,-4.5613,-4.5656,-4.5754,-4.576,-4.58,-4.5813,-4.5824,-4.5835,-4.5888,-4.5906,-4.5713,-4.5713,-4.5712,0,0,-4.5319,-4.5338,-4.5372,-4.5431,-4.5451,-4.5505,-4.5446,-4.5504,-4.5544,-4.5502,-4.5577,-4.5588,-4.5618,-4.5707,-4.5747,-4.572,-4.5889,-4.5835,-4.5843,-4.5848,-4.5898,-4.5916,-4.5933,-4.5718,-4.5717,-4.5716,0,0,-4.544,-4.5459,-4.5529,-4.5551,-4.5584,-4.5585,-4.5602,-4.5627,-4.5633,-4.5709,-4.5679,-4.5724,-4.5805,-4.5828,-4.5851,-4.598,-4.5955,-4.5995,-4.6066,-4.6118,-4.6133,-4.6146,-4.6193,-4.621,-4.6005,-4.6005,-4.6005,0,-4.5499,-4.5579,-4.5567,-4.5629,-4.5656,-4.5621,-4.5691,-4.5713,-4.5758,-4.5777,-4.5745,-4.5847,-4.5864,-4.5958,-4.599,-4.6009,-4.6028,-4.5992,-4.6132,-4.6145,-4.6157,-4.6202,-4.622,-4.601,-4.6009,-4.6009,-4.6008,0,-4.565,-4.5706,-4.5758,-4.5804,-4.5836,-4.5902,-4.59,-4.5934,-4.5921,-4.5925,-4.6003,-4.6023,-4.607,-4.6092,-4.6079,-4.6184,-4.6166,-4.6134,-4.6078,-4.6181,-4.6222,-4.6239,-4.6016,-4.6015,-4.6013,-4.6012,0,0,-4.5812,-4.585,-4.587,-4.589,-4.5923,-4.5966,-4.603,-4.6077,-4.6107,-4.6138,-4.6192,-4.6261,-4.6231,-4.6256,-4.6246,-4.6292,-4.6394,-4.6254,-4.6254,-4.628,-4.6511,-4.6537,-4.6557,-4.6377,-4.638,-4.6383,-4.6509,0,-4.5935,-4.6047,-4.6038,-4.6144,-4.6195,-4.6163,-4.6218,-4.6245,-4.625,-4.6294,-4.6299,-4.6349,-4.6306,-4.6321,-4.6365,-4.6373,-4.6441,-4.6363,-4.6426,-4.6429,-4.6421,-4.6578,-4.6605,-4.6723,-4.6525,-4.6528,-4.653,0,-4.6093,-4.6132,-4.6243,-4.6269,-4.629,-4.634,-4.6383,-4.6425,-4.6454,-4.6455,-4.6484,-4.6466,-4.653,-4.6472,-4.656,-4.6507,-4.6532,-4.654,-4.6544,-4.6551,-4.6486,-4.659,-4.6761,-4.6779,-4.6555,-4.6553,-4.6552,0,-4.6201,-4.628,-4.6357,-4.6376,-4.6408,-4.6444,-4.6458,-4.6484,-4.6513,-4.655,-4.6569,-4.6612,-4.6637,-4.667,-4.6665,-4.6623,-4.6754,-4.6696,-4.6757,-4.6757,-4.6787,-4.6785,-4.6965,-4.6802,-4.6801,-4.6801,-4.6801,0,-4.6339,-4.6409,-4.6406,-4.6454,-4.6531,-4.652,-4.6596,-4.6606,-4.6629,-4.6678,-4.6652,-4.6697,-4.6687,-4.6732,-4.6728,-4.6802,-4.6812,-4.6815,-4.6813,-4.6818,-4.6818,-4.6835,-4.6827,-4.6806,-4.6805,-4.6804,-4.6803,0,-4.6474,-4.6475,-4.6557,-4.658,-4.6588,-4.6643,-4.6663,-4.6708,-4.6711,-4.6773,-4.6787,-4.6792,-4.6844,-4.6842,-4.6901,-4.6898,-4.6989,-4.6977,-4.698,-4.6977,-4.7039,-4.7034,-4.7237,-4.7263,-4.7082,-4.7084,-4.7085,0,-4.6562,-4.6615,-4.6645,-4.6676,-4.6694,-4.6744,-4.6774,-4.6765,-4.6797,-4.6834,-4.6874,-4.6924,-4.6963,-4.7048,-4.7057,-4.7102,-4.7091,-4.7159,-4.7098,-4.7101,-4.7093,-4.7091,-4.7096,-4.7172,-4.7174,-4.7176,-4.7177,0,-4.672,-4.6718,-4.6763,-4.6808,-4.6845,-4.6879,-4.6911,-4.6938,-4.6932,-4.6969,-4.7023,-4.7054,-4.7114,-4.7164,-4.7207,-4.7221,-4.7199,-4.7196,-4.7213,-4.7219,-4.7219,-4.7221,-4.7014,-4.7192,-4.719,-4.7189,-4.7188,-4.7188,-4.6835,-4.6881,-4.6909,-4.696,-4.6983,-4.7013,-4.7057,-4.7066,-4.7111,-4.716,-4.7151,-4.7212,-4.7239,-4.7294,-4.7313,-4.7359,-4.7335,-4.7359,-4.7365,-4.7372,-4.7379,-4.7211,-4.7367,-4.7366,-4.7366,-4.7366,-4.7365,0,-4.6993,-4.7009,-4.7056,-4.7102,-4.7142,-4.7117,-4.7151,-4.7186,-4.7239,-4.7267,-4.7307,-4.7368,-4.7417,-4.7429,-4.7476,-4.7511,-4.7501,-4.7523,-4.7521,-4.7525,-4.7398,-4.7379,-4.753,-4.753,-4.753,-4.753,-4.753,-4.753,-4.7079,-4.7156,-4.7157,-4.7245,-4.726,-4.732,-4.7342,-4.737,-4.7392,-4.7462,-4.7503,-4.7511,-4.7532,-4.758,-4.7623,-4.7626,-4.7644,-4.7671,-4.7669,-4.755,-4.7534,-4.7518,-4.7501,-4.7675,-4.7675,-4.7793,-4.7794,-4.7795]}]]